Location: Nelson
(41.2830°S, 173.2830°E)
Time: 19:23:00
(UTC+12:00)

Atlas Centaur 2 - Pass Details

Date: 14 May 2021
Orbit: 459 x 1308 km, 30.4° (Epoch: 19 June)

Event Time Altitude Azimuth Distance (km) Brightness Sun altitude
Rises 17:55:43 0° 296° (WNW) 3,030 7.4 -7.2°
Reaches altitude 10° 17:58:10 10° 308° (NW) 2,244 5.8 -7.7°
Maximum altitude 18:02:43 28° 6° (N) 1,544 3.7 -8.5°
Drops below altitude 10° 18:08:14 10° 62° (ENE) 2,762 4.5 -9.5°
Enters shadow 18:10:15 - 69° (ENE) 3,421 4.9 -9.9°
